AEROCUBE 6B

Last updated on Tue Oct 28 2025 00:03:54 GMT+0000 (Coordinated Universal Time)

1 40046U 14033AN 25300.40787552 .00009069 00000+0 80758-3 0 9997 2 40046 97.7029 105.0644 0040918 67.5433 293.0113 14.95616360611918
UTC large
Height (km)
Speed (km/s)
/
Latitude / Longitude
Inclination (degrees)
Orbital Period (minutes)
Azimuth
Elevation
Range (km)
Doppler Factor

Next 0 passes for location: London (51.5072 / 0.1276)

Sorry there are no passes over London.